Regional Weather Roundup
Issued by NWS

Home | Current Version | Previous Version | Text Only | Print | Product List | Glossary On
Versions: 1 2 3 4 5 6 7 8 9 10 11 12 13 14 15 16 17 18 19 20 21 22 23 24 25 26 27 28
000
ASUS42 KTBW 191516
RWRFL
FLORIDA REGIONAL WEATHER ROUNDUP
NATIONAL WEATHER SERVICE TAMPA BAY RUSKIN FL
1000 AM EST SUN FEB 19 2017

NOTE: "FAIR" INDICATES FEW OR NO CLOUDS BELOW 12,000 FEET WITH NO
SIGNIFICANT WEATHER AND/OR OBSTRUCTIONS TO VISIBILITY.

FLZ001>010-012>015-112-114-115-191600-
PANHANDLE FLORIDA

CITY           SKY/WX    TMP DP  RH WIND       PRES   REMARKS
PENSACOLA      FOG       62  60  93 N5        30.10R VSB 1/2
PENSACOLA NAS  FOG       62  61  96 NE5       30.10R VSB 1/4
MILTON NAS     LGT RAIN  59  59 100 NW3       30.11  FOG
CRESTVIEW      FOG       59  58  96 CALM      30.13R VSB 1
DUKE FIELD     FOG       59  59 100 CALM      30.10S VSB 1/2
VALPARAISO     MOSUNNY   63  63 100 N3        30.10R
TRI COUNTY     CLOUDY    59  59 100 CALM      30.12R FOG
PANAMA CITY    FAIR      66  60  81 NW5       30.10R
TYNDALL AFB    SUNNY     63  63 100 N6        30.11R
APALACHICOLA   PTSUNNY   66  66 100 N6        30.10R

STATION/POSITION SKY/WX   TEMP    WIND        PRES    WAVE   SWELL
                          AIR SEA DIR/SP/G            HT/PER HT/PER
                          (F)     (DEG/KT/KT) (MB)    (FT/S) (FT/S)
30.1N   87.6W              63 67   30/  8/ 10 1018.5    2/ 5   2/ 5
28.8N   86.0W              71 70              1018.7R   2/ 5   2/ 5
PANAMA CITY BEAC           62      20/  5/  6 1019.6R
TOWER C                    65      20/ 11/ 11 1019.4R
28.5N   84.5W              70 70   CALM  /  2 1018.6R   2/ 5   2/ 5

$$
FLZ011-016>038-118-127-128-134-139-239-191600-
NORTH FLORIDA

CITY           SKY/WX    TMP DP  RH WIND       PRES   REMARKS
MARIANNA       CLOUDY    61  61 100 CALM      30.10R
TALLAHASSEE    PTSUNNY   63  60  90 VRB3      30.11R
PERRY          CLOUDY    63  61  94 N5        30.11R
CROSS CITY     CLOUDY    66  63  88 N8        30.09S
LAKE CITY      CLOUDY    64  63  94 N8        30.10R
GAINESVILLE    CLOUDY    67  60  78 N9        30.10R
WILLISTON      CLOUDY    66  64  94 NW6       30.09S
PALATKA        PTSUNNY   68  63  83 NW9       30.10R
MAYPORT NAS    CLOUDY    65  59  81 NW10      30.09R
JACKSONVILLE   CLOUDY    64  60  87 NW8       30.09R
JAX NAS        PTSUNNY   66  60  81 NW7       30.10R
FERNANDINA BEA CLOUDY    64  61  88 NW10G21   30.08R
ST AUGUSTINE   PTSUNNY   69  61  75 W9        30.09R

STATION/POSITION SKY/WX   TEMP    WIND        PRES    WAVE   SWELL
                          AIR SEA DIR/SP/G            HT/PER HT/PER
                          (F)     (DEG/KT/KT) (MB)    (FT/S) (FT/S)
SHELL POINT      NOT AVBL
KEATON BEACH               63      30/  7/  9 1018.8R
CEDAR KEY                  67     330/  4/  5 1018.9R
FERNANDINA                 60 65  290/  5/  8 1019.5R
30.7N   81.3W                 63                N/A     2/ 2
MAYPORT                    64 65  300/  9/ 11 1018.9R
31.4N   80.9W              59 61  270/  8/ 10 1018.0R   1/ 5   2/ 5
ST AUGUSTINE               66 65  300/  7/ 10 1019.6R

$$
FLZ040-043>046-052-053-057-058-063-144-191600-
INTERIOR CENTRAL FLORIDA

CITY           SKY/WX    TMP DP  RH WIND       PRES   REMARKS
OCALA          PTSUNNY   66  61  82 N8        30.09R
THE VILLAGES     N/A     70  70 100 SE9       29.99F
LEESBURG       PTSUNNY   70  63  78 N10       30.09F
SANFORD        PTSUNNY   69  63  81 N12       30.08S
ORLANDO EXEC   CLOUDY    69  64  84 NW10      30.09R
ORLANDO INTL   CLOUDY    71  64  78 NW12      30.08S
KISSIMMEE      CLOUDY    72  65  78 N9        30.09S
WINTER HAVEN   CLOUDY    71  66  84 NW6       30.10R
LAKELAND       MOSUNNY   68  68 100 W5        30.09R
BARTOW         PTSUNNY   68 N/A N/A W7        30.09R
OKEECHOBEE     CLOUDY    72  68  88 W8        30.09R

$$
FLZ041-047-054-059-064-141-147-191600-
EAST CENTRAL FLORIDA

CITY           SKY/WX    TMP DP  RH WIND       PRES   REMARKS
ORMOND BEACH   PTSUNNY   66  63  88 NW9       30.08S FOG
DAYTONA BEACH  PTSUNNY   68  64  87 NW8       30.08S
DELAND         CLOUDY    68  64  88 NW9       30.08S
NEW SMYRNA BEA PTSUNNY   66  64  94 NW9G16    30.08R
JFK SPACE CTR  CLOUDY    68  65  92 N10       30.07R
TITUSVILLE     CLOUDY    66  64  94 NW9       30.08S FOG
CAPE CANAVERAL CLOUDY    69  65  88 NW9       30.06S
PATRICK AFB    MOSUNNY   70  68  93 NW12      30.07R
MELBOURNE      CLOUDY    72  64  76 NW13      30.07S
VERO BEACH     PTSUNNY   74  67  78 W12       30.08R
FT PIERCE      CLOUDY    71  68  90 NW9       30.08R FOG
STUART         PTSUNNY   79  68  69 W12G20    30.09R

STATION/POSITION SKY/WX   TEMP    WIND        PRES    WAVE   SWELL
                          AIR SEA DIR/SP/G            HT/PER HT/PER
                          (F)     (DEG/KT/KT) (MB)    (FT/S) (FT/S)
TRIDENT PIER               68 71  310/  5/  8 1019.4R
28.4N   80.5W                 71                N/A     1/11
27.5N   80.2W                 73                N/A     2/11

$$
FLZ050-056-061-142-242-148-248-149-249-151-251-155-255-
160-260-191600-
WEST CENTRAL FLORIDA

CITY           SKY/WX    TMP DP  RH WIND       PRES   REMARKS
CRYSTAL RIVER  CLOUDY    66  64  94 N3        30.09S
INVERNESS      CLOUDY    66  66 100 N3        30.10R
BROOKSVILLE    CLOUDY    71  66  84 N8        30.09S
CLEARWATER AIR PTSUNNY   70  68  94 NW6       30.09R
ST PETE CLEARW MOSUNNY   73  68  84 NW5       30.09R
TAMPA INTL     MOSUNNY   72  67  84 W5        30.09S
TAMPA EXEC     CLOUDY    73  68  83 NW5       30.10R
PLANT CITY     PTSUNNY   72  72 100 N6        30.11R
MACDILL AFB    MOSUNNY   73  73 100 N7        30.09R
PETER O KNIGHT PTSUNNY   73  72  94 CALM      30.09S
ST PETERSBURG  PTSUNNY   71  68  90 VRB3      30.07S
SARASOTA       CLOUDY    71  68  90 W6        30.08R
VENICE         CLOUDY    72  72 100 NW7       30.10R

STATION/POSITION SKY/WX   TEMP    WIND        PRES    WAVE   SWELL
                          AIR SEA DIR/SP/G            HT/PER HT/PER
                          (F)     (DEG/KT/KT) (MB)    (FT/S) (FT/S)
27.3N   84.2W                 72                N/A     2/ 5
CLEARWATER BEACH           70 74  280/  1/  2 1019.0R
MIDDLE TAMPA BAY           68      50/  4/  5 1019.1R
VENICE                     70 69  320/  6/  7 1018.6R

$$
FLZ066-069-070-075>078-162-262-165-265-191600-
SOUTHWEST FLORIDA AND KEYS

CITY           SKY/WX    TMP DP  RH WIND       PRES   REMARKS
PUNTA GORDA    MOSUNNY   76  70  82 NW8       30.10R
FT MYERS       SUNNY     78  70  76 W10       30.08R
SOUTHWEST INTL SUNNY     78  68  71 W9        30.08R
NAPLES         MOSUNNY   79  71  76 W9        30.08R
MARCO ISLAND   SUNNY     81  70  69 SW9       30.08S
MARATHON       MOSUNNY   84  75  74 VRB5      30.08R
KEY WEST NAS   MOSUNNY   73  71  93 W7        30.09R
KEY WEST INTL  MOSUNNY   80  71  74 SW8       30.09R

STATION/POSITION SKY/WX   TEMP    WIND        PRES    WAVE   SWELL
                          AIR SEA DIR/SP/G            HT/PER HT/PER
                          (F)     (DEG/KT/KT) (MB)    (FT/S) (FT/S)
NAPLES                        72              1018.4
26.0N   85.6W              75 75   70/  6/  6 1018.8R   2/ 6   2/ 6
DRY TORTUGAS               76     150/  4/  4 1018.8R
SAND KEY                   76      50/  4/ 10 1019.5R
LONG KEY                   78 76  230/  4/  5 1018.9R

$$
FLZ067-068-071>074-168-172>174-191600-
SOUTHEAST FLORIDA

CITY           SKY/WX    TMP DP  RH WIND       PRES   REMARKS
W PALM BEACH   PTSUNNY   78  69  73 W15       30.07S
BOCA RATON     MOSUNNY   79  72  78 W15       30.07R
FT LAUDER-EXEC MOSUNNY   82  69  64 SW14      30.07R
FT LAUDERDALE  MOSUNNY   80  70  71 W13G18    30.06S
POMPANO BEACH  MOSUNNY   80  70  71 SW14      30.07R
PEMBROKE PINES MOSUNNY   82  70  66 SW14      30.08S
OPA LOCKA      MOSUNNY   82  71  69 SW10      30.08R
MIAMI          MOSUNNY   79  70  74 SW8G21    30.08R
WEST KENDALL   MOSUNNY   82  71  69 SW9       30.08R
HOMESTEAD      MOSUNNY   79  79 100 S9        30.07S

STATION/POSITION SKY/WX   TEMP    WIND        PRES    WAVE   SWELL
                          AIR SEA DIR/SP/G            HT/PER HT/PER
                          (F)     (DEG/KT/KT) (MB)    (FT/S) (FT/S)
PORT EVERGLADES            79     240/  5/ 13 1018.1R
VIRGINIA KEY               74 80  230/  6/  7 1018.8R
LAKE WORTH                 75     260/ 10/ 14 1018.9R
FOWEY ROCKS                78 74  230/  7/  7 1019.3R

$$





USA.gov is the U.S. government's official web portal to all federal, state and local government web resources and services.